Seattle, WA

9:50 AM PDT on March 30, 2017 (GMT -0700)
Seattle-Tacoma International

Weather History for KSEA - November, 2013

Change the Weather History Date:

Tuesday, November 19, 2013

  Actual Average Record
Temperature  
Mean Temperature 48 °F 45 °F  
Max Temperature 56 °F 50 °F 60 °F (1965)
Min Temperature 40 °F 39 °F 23 °F (1946)
Degree Days  
Heating Degree Days 17 20  
Month to date heating degree days 279 348  
Since 1 July heating degree days 795 945  
Cooling Degree Days 0 0  
Month to date cooling degree days 0 0  
Year to date cooling degree days 385 189  
Moisture  
Dew Point 38 °F    
Average Humidity 63    
Maximum Humidity 86    
Minimum Humidity 40    
Precipitation  
Precipitation 0.04 in 0.24 in 2.13 in (2012)
Month to date precipitation 3.68 4.12  
Year to date precipitation 30.79 29.69  
Snow  
Snow 0.00 in - 7.00 in (1996)
Month to date snowfall 0.0  
Since 1 July snowfall 0.0  
Snow Depth 0.00 in    
Sea Level Pressure  
Sea Level Pressure 29.80 in    
Wind  
Wind Speed 12 mph (NE)    
Max Wind Speed 21 mph    
Max Gust Speed 28 mph    
Visibility 9 miles    
Events Rain    
T = Trace of Precipitation, MM = Missing Value Source: NWS Daily Summary

Daily Weather History Graph

Daily Weather History Graph

Search for Another Location

Airport or City:

Trip Planner

Search our weather history database for the weather conditions in past years. The results will help you decide how hot, cold, wet, or windy it might be!

Date:

Astronomy

Nov. 19, 2013 Rise Set
Actual Time 7:20 AM PST 4:28 PM PST
Civil Twilight 6:46 AM PST 5:02 PM PST
Nautical Twilight 6:08 AM PST 5:40 PM PST
Astronomical Twilight 5:32 AM PST 6:16 PM PST
Moon 6:23 PM PST (11/19) 9:05 AM PST (11/19)
Length of Visible Light 10h 16m
Length of Day
9h 08m
Waning Gibbous, 95% of the Moon is Illuminated
Nov 19
Waning Gibbous
Nov 25
Last Quarter
Dec 2
New
Dec 9
First Quarter
Dec 17
Full

Hourly Weather History & Observations

Time (PST) Temp. Windchill Dew Point Humidity Pressure Visibility Wind Dir Wind Speed Gust Speed Precip Events Conditions
12:28 AM 55.4 °F - 48.2 °F 77% 29.57 in 10.0 mi SSW 16.1 mph 24.2 mph 0.00 in   Overcast
12:38 AM 55.4 °F - 48.2 °F 77% 29.57 in 10.0 mi SSW 18.4 mph 25.3 mph 0.00 in   Overcast
12:53 AM 55.0 °F - 48.9 °F 80% 29.59 in 10.0 mi South 21.9 mph 26.5 mph 0.00 in Rain Light Rain
1:39 AM 55.4 °F - 48.2 °F 77% 29.58 in 7.0 mi SSW 18.4 mph 25.3 mph 0.01 in   Overcast
1:51 AM 55.4 °F - 48.2 °F 77% 29.58 in 7.0 mi SSW 18.4 mph 26.5 mph 0.01 in Rain Light Rain
1:53 AM 55.0 °F - 48.9 °F 80% 29.60 in 7.0 mi SSW 16.1 mph 26.5 mph 0.01 in Rain Light Rain
2:07 AM 55.4 °F - 50.0 °F 82% 29.59 in 2.0 mi SSW 16.1 mph 23.0 mph 0.01 in Rain Light Rain
2:53 AM 54.0 °F - 50.0 °F 86% 29.62 in 2.0 mi SSW 17.3 mph 26.5 mph 0.02 in   Overcast
3:24 AM 53.6 °F - 50.0 °F 88% 29.61 in 6.0 mi SSW 12.7 mph 25.3 mph N/A   Overcast
3:53 AM 54.0 °F - 48.9 °F 83% 29.65 in 10.0 mi SW 11.5 mph 19.6 mph N/A   Overcast
4:53 AM 48.9 °F - 44.1 °F 83% 29.70 in 10.0 mi NNE 8.1 mph - N/A   Overcast
5:53 AM 46.9 °F - 42.1 °F 83% 29.73 in 6.0 mi ENE 12.7 mph - 0.00 in Rain Light Rain
6:47 AM 46.4 °F 42.9 °F 41.0 °F 81% 29.75 in 10.0 mi ENE 6.9 mph - 0.00 in   Overcast
6:53 AM 46.9 °F - 39.9 °F 77% 29.78 in 10.0 mi East 8.1 mph - 0.00 in   Overcast
7:53 AM 46.9 °F - 39.9 °F 77% 29.80 in 10.0 mi NE 18.4 mph - 0.00 in Rain Light Rain
8:24 AM 46.4 °F 40.7 °F 39.2 °F 76% 29.78 in 10.0 mi ENE 12.7 mph - 0.00 in Rain Light Rain
8:53 AM 46.0 °F 40.2 °F 39.9 °F 79% 29.82 in 10.0 mi NE 12.7 mph - 0.00 in   Overcast
9:53 AM 46.0 °F 40.2 °F 37.9 °F 73% 29.83 in 10.0 mi ENE 12.7 mph - 0.00 in   Overcast
10:53 AM 46.0 °F 40.2 °F 37.9 °F 73% 29.86 in 8.0 mi ENE 12.7 mph - 0.00 in Rain Light Rain
11:32 AM 46.4 °F 41.5 °F 39.2 °F 76% 29.84 in 10.0 mi ENE 10.4 mph - 0.00 in Rain Light Rain
11:53 AM 46.0 °F 40.6 °F 37.9 °F 73% 29.87 in 10.0 mi NE 11.5 mph - 0.00 in Rain Light Rain
12:22 PM 44.6 °F 38.1 °F 37.4 °F 76% 29.86 in 10.0 mi North 13.8 mph - 0.00 in   Overcast
12:53 PM 45.0 °F 41.8 °F 37.9 °F 76% 29.89 in 8.0 mi NNW 5.8 mph - 0.00 in Rain Light Rain
1:28 PM 46.4 °F 42.4 °F 37.4 °F 71% 29.86 in 10.0 mi North 8.1 mph - 0.00 in   Mostly Cloudy
1:53 PM 46.0 °F 42.5 °F 37.0 °F 71% 29.88 in 10.0 mi North 6.9 mph - 0.01 in Rain Light Rain
2:53 PM 46.0 °F 43.1 °F 36.0 °F 68% 29.89 in 10.0 mi North 5.8 mph - 0.00 in   Mostly Cloudy
3:53 PM 46.0 °F 43.1 °F 36.0 °F 68% 29.90 in 10.0 mi NNE 5.8 mph - N/A   Overcast
4:53 PM 46.0 °F 44.8 °F 36.0 °F 68% 29.91 in 10.0 mi NNE 3.5 mph - N/A   Overcast
5:53 PM 45.0 °F 39.7 °F 30.9 °F 58% 29.93 in 10.0 mi NNE 10.4 mph - N/A   Overcast
6:53 PM 44.1 °F 40.8 °F 26.1 °F 49% 29.94 in 10.0 mi North 5.8 mph - N/A   Overcast
7:53 PM 44.1 °F 37.7 °F 21.9 °F 42% 29.96 in 10.0 mi North 12.7 mph - N/A   Overcast
8:53 PM 43.0 °F 36.8 °F 21.9 °F 43% 29.99 in 10.0 mi North 11.5 mph - N/A   Overcast
9:53 PM 42.1 °F 35.7 °F 23.0 °F 47% 30.02 in 10.0 mi North 11.5 mph - N/A   Mostly Cloudy
10:53 PM 42.1 °F 33.3 °F 21.9 °F 45% 30.06 in 10.0 mi North 19.6 mph - N/A   Overcast
11:53 PM 39.9 °F 32.1 °F 21.9 °F 49% 30.09 in 10.0 mi North 13.8 mph - N/A   Scattered Clouds